GW7052 Weather Reports


time (UTC)temp
C
wind
direction
speed
KPH
gust
KPH
rain 1hr
cm
rain 24hr
cm
rain mn
cm
humidity
%
barometer
mb
20260505210830 16 183 0.0 0.0 0.00 0.00 0.00 68 1017.7
20260505210327 16 183 0.0 0.0 0.00 0.00 0.00 68 1017.6
20260505205823 16 183 0.0 0.0 0.00 0.00 0.00 68 1017.7
20260505205322 17 183 1.6 1.6 0.00 0.00 0.00 68 1017.7
20260505204818 16 183 0.0 1.6 0.00 0.00 0.00 68 1017.7
20260505204316 17 183 0.0 0.0 0.00 0.00 0.00 68 1017.8
20260505203814 16 183 0.0 0.0 0.00 0.00 0.00 68 1017.9
20260505203310 16 183 1.6 1.6 0.00 0.00 0.00 68 1017.7
20260505202806 16 183 0.0 0.0 0.00 0.00 0.00 69 1017.9
20260505202306 16 183 1.6 1.6 0.00 0.00 0.00 69 1017.7
20260505201759 16 183 0.0 1.6 0.00 0.00 0.00 69 1018.1
20260505201256 16 183 0.0 1.6 0.00 0.00 0.00 69 1018.0
20260505200755 16 183 1.6 1.6 0.00 0.00 0.00 68 1018.1
20260505200252 16 183 1.6 1.6 0.00 0.00 0.00 67 1017.9
20260505195747 16 183 0.0 0.0 0.00 0.00 0.00 68 1018.1
20260505195245 16 183 0.0 1.6 0.00 0.00 0.00 69 1018.0
20260505194742 16 183 0.0 1.6 0.00 0.00 0.00 69 1017.9
20260505194238 17 183 0.0 1.6 0.00 0.00 0.00 67 1018.2
20260505193734 17 183 0.0 1.6 0.00 0.00 0.00 65 1018.2
20260505193232 17 184 1.6 1.6 0.00 0.00 0.00 67 1018.2
20260505192730 17 183 0.0 0.0 0.00 0.00 0.00 68 1017.9
20260505192227 16 183 0.0 1.6 0.00 0.00 0.00 68 1017.9
20260505191725 16 183 0.0 0.0 0.00 0.00 0.00 67 1018.1
20260505191224 16 201 0.0 3.2 0.00 0.00 0.00 67 1018.1
20260505190719 16 201 1.6 1.6 0.00 0.00 0.00 67 1018.1
20260505190219 16 203 1.6 1.6 0.00 0.00 0.00 68 1018.0
20260505185716 16 183 1.6 1.6 0.00 0.00 0.00 67 1017.9
20260505185212 16 183 1.6 1.6 0.00 0.00 0.00 68 1018.1
20260505184708 16 183 1.6 1.6 0.00 0.00 0.00 67 1018.0
20260505184206 16 175 0.0 1.6 0.00 0.00 0.00 66 1018.2
20260505183703 16 168 0.0 1.6 0.00 0.00 0.00 69 1018.0
20260505183200 16 181 1.6 1.6 0.00 0.00 0.00 68 1018.2
20260505182656 16 223 1.6 1.6 0.00 0.00 0.00 68 1018.2
20260505182154 15 224 0.0 1.6 0.00 0.00 0.00 71 1018.0
20260505181650 16 218 0.0 0.0 0.00 0.00 0.00 69 1017.9
20260505181148 16 217 1.6 1.6 0.00 0.00 0.00 70 1018.2
20260505180643 15 218 1.6 3.2 0.00 0.00 0.00 71 1017.9
20260505180141 15 218 1.6 1.6 0.00 0.00 0.00 72 1018.3
20260505175637 15 218 1.6 1.6 0.00 0.00 0.00 73 1017.9
20260505175133 14 218 0.0 0.0 0.00 0.00 0.00 76 1018.1
20260505174630 14 218 0.0 1.6 0.00 0.00 0.00 76 1018.1
20260505174126 14 219 1.6 1.6 0.00 0.00 0.00 75 1018.2
20260505173623 13 218 0.0 1.6 0.00 0.00 0.00 77 1018.1
20260505173120 13 218 1.6 1.6 0.00 0.00 0.00 77 1018.1
20260505172618 14 218 1.6 1.6 0.00 0.00 0.00 76 1018.0
20260505172114 13 218 1.6 1.6 0.00 0.00 0.00 77 1018.0
20260505171608 13 218 1.6 1.6 0.00 0.00 0.00 77 1017.8
20260505171106 14 218 1.6 1.6 0.00 0.00 0.00 77 1017.9
20260505170603 14 218 0.0 4.8 0.00 0.00 0.00 76 1017.9
20260505170059 14 206 0.0 0.0 0.00 0.00 0.00 76 1017.9
20260505165554 14 206 0.0 0.0 0.00 0.00 0.00 77 1017.9
20260505165050 13 206 1.6 1.6 0.00 0.00 0.00 78 1017.9
20260505164546 13 206 0.0 0.0 0.00 0.00 0.00 79 1017.9
20260505164044 13 206 0.0 0.0 0.00 0.00 0.00 79 1017.8
20260505163543 13 206 0.0 0.0 0.00 0.00 0.00 78 1017.9
20260505163039 13 206 0.0 1.6 0.00 0.00 0.00 79 1017.6
20260505162538 13 206 0.0 1.6 0.00 0.00 0.00 79 1017.8
20260505162035 13 206 0.0 1.6 0.00 0.00 0.00 79 1017.5
20260505161532 13 206 0.0 1.6 0.00 0.00 0.00 78 1017.6
20260505161029 13 206 1.6 1.6 0.00 0.00 0.00 78 1017.7
20260505160527 13 206 0.0 1.6 0.00 0.00 0.00 78 1017.6
20260505153003 13 206 1.6 1.6 0.00 0.00 0.00 79 1017.7
20260505152500 13 206 0.0 1.6 0.00 0.00 0.00 81 1017.5
20260505151955 13 206 0.0 0.0 0.00 0.00 0.00 80 1017.5
20260505151451 13 206 0.0 1.6 0.00 0.00 0.00 80 1017.4
20260505150949 12 206 0.0 1.6 0.00 0.00 0.00 81 1017.6
20260505150445 12 206 0.0 0.0 0.00 0.00 0.00 81 1017.6
20260505140415 12 206 0.0 0.0 0.00 0.00 0.00 85 1016.9
20260505124829 11 206 0.0 0.0 0.00 0.00 0.00 85 1016.7
20260505124326 11 206 0.0 0.0 0.00 0.00 0.00 85 1016.6
20260505123822 12 206 0.0 0.0 0.00 0.00 0.00 85 1016.6
20260505123318 12 206 0.0 0.0 0.00 0.00 0.00 85 1016.5
20260505122815 12 206 0.0 0.0 0.00 0.00 0.00 85 1016.5
20260505122312 11 206 0.0 1.6 0.00 0.00 0.00 85 1016.6
20260505121809 11 206 0.0 0.0 0.00 0.00 0.00 85 1016.4
20260505121306 11 206 0.0 0.0 0.00 0.00 0.00 85 1016.7
20260505120802 12 206 0.0 1.6 0.00 0.00 0.00 85 1016.5
20260505120258 12 206 0.0 0.0 0.00 0.00 0.00 85 1016.4
20260505115756 12 206 0.0 0.0 0.00 0.00 0.00 85 1016.4
20260505115254 11 206 0.0 1.6 0.00 0.00 0.00 85 1016.4
20260505114751 11 206 0.0 0.0 0.00 0.00 0.00 85 1016.3
20260505114247 12 206 0.0 0.0 0.00 0.00 0.00 85 1016.5
20260505113744 12 206 0.0 0.0 0.00 0.00 0.00 85 1016.3
20260505113241 11 206 0.0 0.0 0.00 0.00 0.00 85 1016.3
20260505112737 11 206 0.0 0.0 0.00 0.00 0.00 85 1016.6
20260505112235 11 206 0.0 0.0 0.00 0.00 0.00 85 1016.4
20260505111735 11 206 1.6 1.6 0.00 0.00 0.00 85 1016.3
20260505111231 11 206 0.0 0.0 0.00 0.00 0.00 86 1016.4
20260505110727 11 206 0.0 0.0 0.00 0.00 0.00 86 1016.2
20260505110225 11 206 0.0 0.0 0.00 0.00 0.00 86 1016.3
20260505102200 11 206 0.0 1.6 0.00 0.00 0.00 87 1015.8
20260505101659 11 206 0.0 1.6 0.00 0.00 0.00 87 1015.9
20260505101154 11 206 0.0 1.6 0.00 0.00 0.00 87 1015.7
20260505100650 11 206 0.0 0.0 0.00 0.00 0.00 87 1015.7
20260505100148 11 206 0.0 1.6 0.00 0.00 0.00 88 1015.8
20260505095643 11 206 0.0 0.0 0.00 0.00 0.00 89 1016.0
20260505095141 11 206 0.0 0.0 0.00 0.00 0.00 89 1016.0
20260505094637 10 206 0.0 0.0 0.00 0.00 0.00 90 1016.0
20260505094133 10 206 0.0 0.0 0.00 0.00 0.00 89 1016.0
20260505093630 11 206 0.0 0.0 0.00 0.00 0.00 89 1015.7
20260505093127 11 206 0.0 0.0 0.00 0.00 0.00 89 1015.8
20260505092624 11 206 0.0 0.0 0.00 0.00 0.00 88 1015.8
20260505092123 11 206 0.0 0.0 0.00 0.00 0.00 88 1015.6
20260505091619 11 206 0.0 0.0 0.00 0.00 0.00 87 1015.6
20260505091118 11 206 0.0 0.0 0.00 0.00 0.00 86 1015.7
20260505090615 11 206 0.0 0.0 0.00 0.00 0.00 86 1015.5
20260505090113 11 206 1.6 1.6 0.00 0.00 0.00 86 1015.4
20260505085610 11 206 0.0 0.0 0.00 0.00 0.00 86 1015.6
20260505085109 11 206 0.0 0.0 0.00 0.00 0.00 85 1015.3
20260505084606 11 206 0.0 0.0 0.00 0.00 0.00 85 1015.4
20260505084104 11 206 1.6 1.6 0.00 0.00 0.00 84 1015.6
20260505083601 11 206 0.0 1.6 0.00 0.00 0.00 84 1015.6
20260505083057 12 206 0.0 1.6 0.00 0.00 0.00 84 1015.4
20260505082553 12 206 0.0 1.6 0.00 0.00 0.00 84 1015.6
20260505082051 12 206 0.0 0.0 0.00 0.00 0.00 83 1015.4
20260505081547 12 206 1.6 1.6 0.00 0.00 0.00 83 1015.5
20260505081044 12 206 0.0 1.6 0.00 0.00 0.00 83 1015.4
20260505080540 12 206 1.6 1.6 0.00 0.00 0.00 83 1015.2
20260505080037 12 206 0.0 0.0 0.00 0.00 0.00 82 1015.3
20260505075533 12 206 0.0 0.0 0.00 0.00 0.00 82 1015.3
20260505075030 12 206 0.0 1.6 0.00 0.00 0.00 82 1015.2
20260505074527 12 206 0.0 3.2 0.00 0.00 0.00 81 1015.1
20260505074024 12 205 0.0 0.0 0.00 0.00 0.00 81 1014.8
20260505073521 12 205 0.0 0.0 0.00 0.00 0.00 80 1014.9
20260505073020 12 204 0.0 1.6 0.00 0.00 0.00 80 1014.5
20260505072515 13 204 0.0 3.2 0.00 0.00 0.00 79 1014.9
20260505072011 13 202 0.0 3.2 0.00 0.00 0.00 79 1014.7
20260505071507 13 219 0.0 0.0 0.00 0.00 0.00 78 1014.7
20260505071005 13 220 1.6 3.2 0.00 0.00 0.00 78 1014.6
20260505070502 13 221 0.0 0.0 0.00 0.00 0.00 78 1014.5
20260505065957 13 225 1.6 3.2 0.00 0.00 0.00 78 1014.5
20260505065454 13 227 1.6 4.8 0.00 0.00 0.00 78 1014.4
20260505064951 13 205 1.6 3.2 0.00 0.00 0.00 78 1014.3
20260505064448 13 204 0.0 0.0 0.00 0.00 0.00 78 1014.4
20260505063946 13 204 0.0 1.6 0.00 0.00 0.00 78 1014.4
20260505063442 13 204 0.0 1.6 0.00 0.00 0.00 77 1014.1
20260505062939 13 204 0.0 1.6 0.00 0.00 0.00 77 1014.2
20260505062436 13 204 1.6 3.2 0.00 0.00 0.00 77 1014.0
20260505061933 13 204 1.6 3.2 0.00 0.00 0.00 77 1014.0
20260505061431 14 204 3.2 3.2 0.00 0.00 0.00 76 1013.9
20260505060928 14 204 1.6 1.6 0.00 0.00 0.00 76 1014.0
20260505060425 14 204 1.6 1.6 0.00 0.00 0.00 76 1013.9
20260505055921 14 203 0.0 1.6 0.00 0.00 0.00 76 1013.9
20260505055418 14 192 1.6 1.6 0.00 0.00 0.00 76 1013.8
20260505054914 15 192 1.6 1.6 0.00 0.00 0.00 76 1013.8
20260505054412 15 192 0.0 0.0 0.00 0.00 0.00 75 1013.9
20260505053910 15 192 0.0 0.0 0.00 0.00 0.00 75 1013.8
20260505053407 15 192 0.0 4.8 0.00 0.00 0.00 74 1013.8
20260505052903 15 214 0.0 1.6 0.00 0.00 0.00 73 1013.7
20260505052400 15 214 0.0 1.6 0.00 0.00 0.00 73 1013.7
20260505051858 15 214 0.0 1.6 0.00 0.00 0.00 73 1013.5
20260505051354 16 214 0.0 1.6 0.00 0.00 0.00 72 1013.6
20260505050853 16 214 0.0 0.0 0.00 0.00 0.00 72 1013.6
20260505050351 16 213 0.0 1.6 0.00 0.00 0.00 71 1013.6
20260505041318 18 213 0.0 3.2 0.00 0.00 0.00 67 1012.7
20260505040815 18 213 1.6 1.6 0.00 0.00 0.00 67 1012.5
20260505040313 18 213 0.0 0.0 0.00 0.00 0.00 67 1012.6
20260505035809 18 213 0.0 1.6 0.00 0.00 0.00 67 1012.5
20260505035305 18 213 1.6 1.6 0.00 0.00 0.00 67 1012.2
20260505034803 18 213 0.0 1.6 0.00 0.00 0.00 67 1012.3
20260505034259 18 212 0.0 0.0 0.00 0.00 0.00 66 1012.1
20260505033756 19 209 0.0 0.0 0.00 0.00 0.00 67 1012.1
20260505033253 19 209 0.0 1.6 0.00 0.00 0.00 66 1012.1
20260505032751 20 209 0.0 3.2 0.00 0.00 0.00 66 1011.9
20260505032247 20 209 1.6 1.6 0.00 0.00 0.00 65 1012.1
20260505031744 20 209 0.0 1.6 0.00 0.00 0.00 64 1012.0
20260505031241 20 208 1.6 1.6 0.00 0.00 0.00 64 1011.8
20260505030738 20 211 0.0 3.2 0.00 0.00 0.00 63 1011.8
20260505030234 20 208 1.6 3.2 0.00 0.00 0.00 64 1011.8
20260505025730 20 206 0.0 3.2 0.00 0.00 0.00 64 1011.8
20260505025228 21 207 1.6 3.2 0.00 0.00 0.00 64 1011.7
20260505024726 21 201 0.0 1.6 0.00 0.00 0.00 64 1011.7
20260505024223 21 200 0.0 1.6 0.00 0.00 0.00 64 1011.6
20260505023720 21 201 0.0 1.6 0.00 0.00 0.00 64 1011.6
20260505023217 21 200 0.0 0.0 0.00 0.00 0.00 64 1011.4
20260505022715 21 200 0.0 0.0 0.00 0.00 0.00 63 1011.4
20260505022211 21 200 0.0 0.0 0.00 0.00 0.00 63 1011.5
20260505021708 21 200 0.0 0.0 0.00 0.00 0.00 62 1011.6
20260505021205 21 200 0.0 0.0 0.00 0.00 0.00 62 1011.4
20260505020701 22 200 0.0 1.6 0.00 0.00 0.00 60 1011.4
20260505020157 22 200 0.0 1.6 0.00 0.00 0.00 60 1011.5
20260505015654 22 201 1.6 3.2 0.00 0.00 0.00 59 1011.7
20260505015150 22 201 1.6 1.6 0.00 0.00 0.00 59 1011.4
20260505014648 22 215 0.0 0.0 0.00 0.00 0.00 58 1011.4
20260505014145 23 219 0.0 0.0 0.00 0.00 0.00 57 1011.4
20260505013642 23 219 0.0 1.6 0.00 0.00 0.00 56 1011.3
20260505013139 23 221 0.0 0.0 0.00 0.00 0.00 55 1011.6
20260505012637 23 221 0.0 0.0 0.00 0.00 0.00 55 1011.6
20260505012134 23 221 0.0 1.6 0.00 0.00 0.00 55 1011.6
20260505011630 24 222 1.6 3.2 0.00 0.00 0.00 54 1011.7
20260505011127 23 217 3.2 4.8 0.00 0.00 0.00 54 1011.7
20260505010627 24 192 1.6 1.6 0.00 0.00 0.00 53 1011.7
20260505010125 24 199 0.0 1.6 0.00 0.00 0.00 53 1011.9
20260505005620 24 209 0.0 3.2 0.00 0.00 0.00 53 1011.9
20260505005118 23 209 1.6 1.6 0.00 0.00 0.00 53 1011.8
20260505004615 24 209 1.6 1.6 0.00 0.00 0.00 53 1011.8
20260505004112 24 209 0.0 1.6 0.00 0.00 0.00 53 1011.9
20260505003609 23 208 1.6 1.6 0.00 0.00 0.00 54 1011.8
20260505003106 23 222 1.6 3.2 0.00 0.00 0.00 54 1012.0
20260505002602 23 222 0.0 1.6 0.00 0.00 0.00 54 1012.0
20260505002101 23 182 1.6 3.2 0.00 0.00 0.00 54 1011.9
20260505001557 23 202 3.2 4.8 0.00 0.00 0.00 54 1012.1
20260505001055 22 221 3.2 4.8 0.00 0.00 0.00 56 1011.9
20260505000552 23 208 8.0 11.3 0.00 0.00 0.00 54 1011.9
20260505000049 23 180 0.0 1.6 0.00 0.00 0.00 55 1012.1
20260504235546 23 168 1.6 1.6 0.00 0.00 0.00 55 1012.1
20260504235043 23 180 1.6 1.6 0.00 0.00 0.00 55 1012.0
20260504234540 23 174 1.6 3.2 0.00 0.00 0.00 56 1012.0
20260504234037 22 200 1.6 4.8 0.00 0.00 0.00 56 1012.1
20260504233532 22 187 0.0 1.6 0.00 0.00 0.00 56 1012.2
20260504233029 23 195 1.6 3.2 0.00 0.00 0.00 54 1012.2
20260504232526 23 194 3.2 6.4 0.00 0.00 0.00 55 1012.4
20260504232024 23 184 1.6 3.2 0.00 0.00 0.00 55 1012.4
20260504231520 22 185 0.0 3.2 0.00 0.00 0.00 55 1012.2
20260504231016 23 206 3.2 4.8 0.00 0.00 0.00 53 1012.5
20260504230513 23 186 1.6 3.2 0.00 0.00 0.00 53 1012.5
20260504230012 23 200 0.0 3.2 0.00 0.00 0.00 53 1012.4
20260504225508 23 182 1.6 3.2 0.00 0.00 0.00 52 1012.5
20260504225005 23 184 3.2 3.2 0.00 0.00 0.00 51 1012.6
20260504224502 24 204 3.2 4.8 0.00 0.00 0.00 49 1012.7
20260504223959 24 206 3.2 3.2 0.00 0.00 0.00 49 1012.7
20260504223455 23 215 3.2 6.4 0.00 0.00 0.00 50 1012.7
20260504222951 24 212 3.2 3.2 0.00 0.00 0.00 50 1012.7
20260504222449 25 153 1.6 6.4 0.00 0.00 0.00 48 1012.8
20260504221946 24 182 1.6 3.2 0.00 0.00 0.00 50 1012.9
20260504221443 23 209 3.2 3.2 0.00 0.00 0.00 51 1013.0
20260504220940 23 207 1.6 1.6 0.00 0.00 0.00 51 1013.0
20260504220436 23 192 1.6 3.2 0.00 0.00 0.00 50 1013.3
20260504215934 23 180 3.2 3.2 0.00 0.00 0.00 50 1013.2
20260504215431 23 194 3.2 3.2 0.00 0.00 0.00 51 1013.2
20260504214927 22 189 3.2 3.2 0.00 0.00 0.00 53 1013.3
20260504214423 22 199 4.8 4.8 0.00 0.00 0.00 51 1013.3
20260504213920 22 230 0.0 1.6 0.00 0.00 0.00 53 1013.4
20260504213416 22 207 3.2 3.2 0.00 0.00 0.00 53 1013.6
20260504212914 22 200 3.2 3.2 0.00 0.00 0.00 53 1013.6
20260504212409 22 181 0.0 1.6 0.00 0.00 0.00 54 1013.5
20260504211908 21 196 0.0 3.2 0.00 0.00 0.00 54 1013.7
20260504211403 21 227 0.0 4.8 0.00 0.00 0.00 55 1013.7